sat.trackr.live / text

‹ back to catalog

STARLINK-31859

NORAD 59848 · 2024-097P

PAYLOAD ACTIVE UNKNOWN

§ Identity

Operator
Country
US
Launch date
2024-05-23
Launch site
AFETR
Launch vehicle
Mass (kg)
RCS (m²)

Purposes: comms

External: N2YO · Heavens-Above · Gunter

§ Orbital elements

Epoch: 2026-05-25T04:07:48.339264Z

Period
94.27 min
Inclination
43.0004°
Eccentricity
0.0001612
Mean motion
15.27577725 rev/d
Perigee alt
481.9 km
Apogee alt
484.2 km
Semi-major
6,861.2 km
B*
-9.6676e-6
RAAN
195.5119°
Arg perigee
284.4293°
Mean anomaly
75.6380°
Rev number
11,369

§ Raw data

STARLINK-318591 59848U 24097P   26145.17208726 -.00000528  00000+0 -96676-5 0  99922 59848  43.0004 195.5119 0001612 284.4293  75.6380 15.27577725113697

JSON: /api/v1/satellites/59848 · /tle

For live sub-satellite position, see the globe view (requires WebGL).

§ Visibility from observer

Set your observer location to see the next 7 days of passes ≥ 10°. The values pass through the URL so the page stays shareable.

No JS? Fill the form by hand. The geolocation button needs JavaScript.